Temp
75 75 75 75 75 74 75 74 76 76 77 79 80 79 80 80 82 81 80 81 81 81 82 83 82 82 82 81 81 80 81 80 80 80 80 80 80 79 80 79 79 79 79
75 74 75 76 75 75 75 75 74 75 76 78 79 80 79 80 80 80 80 80 82 81 82 82 82 82 82 82 81 81 81 81 80 79 79 78 78 79 79 80 79 79 79
75 76 75 77 77 77 76 76 76 76 75 77 78 79 78 78 79 79 80 79 80 80 81 81 82 81 82 82 82 81 80 80 79 79 78 77 77 75 76 77 77 78 78
77 76 76 77 78 76 77 76 75 75 74 74 76 75 76 76 77 78 79 80 80 81 79 80 81 81 81 80 81 80 79 78 78 78 77 77 77 77 76 76 77 77 77
78 77 77 75 77 77 78 78 77 76 75 75 76 76 74 73 75 80 78 78 78 77 78 78 79 80 81 82 81 80 79 78 77 77 77 77 77 77 77 76 76 76 75
78 77 77 76 77 77 78 78 77 76 76 76 74 74 75 75 77 76 77 78 75 76 76 75 75 75 79 80 80 80 79 79 78 78 78 78 77 76 76 76 76 75 75
78 76 76 76 76 77 77 77 76 75 75 74 72 74 75 75 76 76 74 73 73 75 74 73 72 71 72 73 75 79 80 79 78 78 78 77 76 76 76 75 75 75 74
78 78 76 76 77 76 76 76 76 74 73 72 71 68 69 72 74 73 72 73 74 73 73 75 73 72 72 71 73 75 78 79 79 78 78 76 76 75 75 75 74 74 74
78 78 77 76 76 75 75 75 75 74 73 72 71 71 67 67 66 71 72 72 71 69 71 72 73 73 72 71 71 74 77 76 77 78 78 77 76 75 75 75 74 74 73
78 78 77 77 76 77 74 74 75 74 73 71 70 70 70 69 65 65 70 69 70 69 68 70 71 71 71 73 71 72 74 74 76 77 77 75 76 76 75 75 75 74 73
78 78 77 77 76 77 76 75 75 73 74 72 71 69 69 67 67 65 64 68 68 69 68 66 67 67 69 70 72 73 75 74 74 75 75 76 76 77 76 76 76 75 75
76 77 78 77 77 77 76 75 74 73 74 74 72 70 70 69 68 67 64 65 65 67 68 67 63 64 66 67 73 71 72 72 71 71 71 72 73 75 75 75 75 74 75
75 76 77 77 77 77 77 76 74 73 73 73 73 71 70 70 70 69 67 65 65 66 67 66 64 64 67 66 69 70 69 69 69 69 68 68 68 68 68 69 70 71 71
75 77 77 78 78 78 78 77 75 74 74 72 72 71 72 71 70 69 68 66 64 64 64 61 65 64 64 64 67 67 65 66 68 68 66 65 65 65 66 66 67 68 68
76 76 76 77 77 78 78 78 75 75 72 71 71 71 69 69 71 69 69 66 65 62 60 62 59 63 63 64 64 64 63 66 67 65 64 64 64 64 63 61 61 62 63
74 75 76 77 77 77 78 77 75 75 71 70 69 69 69 68 69 69 68 67 66 64 59 58 62 61 62 62 65 62 63 64 63 64 64 63 62 61 60 59 60 61 61
75 75 76 76 76 76 76 76 76 73 71 68 69 69 70 70 66 63 62 61 61 62 58 60 60 61 60 59 61 62 63 63 64 63 63 62 60 60 59 59 59 59 59
74 75 75 75 75 76 77 76 76 71 70 67 68 69 68 68 62 59 60 59 59 59 60 57 57 60 60 59 59 59 61 64 62 63 61 60 60 60 59 58 58 58 57
74 75 75 75 76 76 77 76 74 70 68 68 70 70 68 64 60 60 59 59 59 59 59 58 58 58 59 60 59 59 58 59 62 62 60 60 59 58 58 57 57 57 55
75 75 75 76 76 77 77 76 71 69 69 68 69 69 67 64 60 59 58 57 57 58 57 57 57 56 56 59 57 55 56 59 57 60 60 58 58 57 57 56 56 57 56
76 76 76 77 77 77 76 72 71 69 67 65 66 66 65 65 63 62 59 57 57 58 58 57 56 56 56 56 54 56 53 55 56 57 55 55 53 52 53 53 55 57 55
75 76 76 77 77 78 65 66 69 67 65 65 63 64 65 65 64 63 62 61 60 59 56 57 54 54 54 53 55 54 52 51 51 58 52 50 53 50 51 52 56 55 54
75 76 76 77 77 69 63 64 66 67 65 64 63 63 65 65 62 62 62 62 62 61 60 58 55 54 53 53 51 53 51 50 48 52 49 48 53 48 52 53 54 55 54
75 76 77 77 71 66 61 62 65 66 65 63 63 63 61 60 60 60 60 60 60 60 60 61 58 56 56 56 53 52 51 50 52 53 54 46 51 47 50 51 54 54 54
76 76 76 72 68 65 59 60 65 66 63 62 62 62 61 60 59 58 60 59 58 58 59 58 59 57 57 56 55 57 53 54 53 53 54 49 47 46 49 52 51 53 53
76 75 73 71 65 64 58 59 65 66 60 60 59 61 60 60 56 56 60 58 59 57 59 59 59 59 57 56 55 53 53 51 53 52 54 49 50 47 46 50 51 50 51
MSLP
1017.96 1018.00 1017.87 1017.79 1017.66 1017.60 1017.53 1017.62 1017.50 1017.32 1017.07 1016.76 1016.54 1016.26 1016.04 1015.79 1015.64 1015.51 1015.56 1015.42 1015.38 1015.49 1015.70 1015.68 1015.64 1015.67 1015.72 1015.78 1015.93 1016.00 1016.02 1016.24 1016.23 1016.27 1016.34 1016.50 1016.73 1016.86 1016.94 1017.08 1017.23 1017.31 1017.36
1018.04 1017.98 1017.77 1017.79 1017.75 1017.61 1017.88 1017.74 1017.61 1017.43 1017.01 1016.72 1016.57 1016.42 1016.29 1015.94 1015.72 1015.65 1015.51 1015.41 1015.39 1015.55 1015.63 1015.67 1015.60 1015.56 1015.67 1015.61 1015.67 1015.80 1015.94 1015.91 1015.98 1016.14 1016.12 1016.29 1016.35 1016.42 1016.68 1016.68 1016.68 1016.78 1017.01
1017.97 1017.94 1017.88 1017.83 1017.53 1017.55 1017.59 1017.51 1017.58 1017.26 1017.36 1016.92 1016.75 1016.25 1015.99 1015.83 1015.60 1015.36 1015.29 1015.28 1015.36 1015.49 1015.40 1015.32 1015.30 1015.32 1015.50 1015.58 1015.48 1015.53 1015.59 1015.71 1015.80 1015.95 1016.09 1016.24 1016.43 1016.55 1016.60 1016.64 1016.66 1016.64 1016.69
1017.75 1017.82 1017.88 1017.83 1017.66 1017.80 1017.58 1017.53 1017.38 1017.49 1017.36 1017.09 1017.02 1016.51 1016.31 1015.87 1015.58 1015.40 1015.29 1015.29 1015.29 1015.24 1015.23 1015.12 1015.13 1015.16 1015.48 1015.46 1015.52 1015.60 1015.71 1015.70 1015.82 1016.04 1016.14 1016.45 1016.62 1016.80 1016.91 1016.97 1016.90 1016.91 1016.87
1017.70 1017.86 1017.88 1017.91 1017.80 1017.55 1017.42 1017.50 1017.46 1017.47 1017.64 1017.28 1017.11 1016.58 1016.30 1015.91 1015.75 1015.42 1015.36 1015.28 1015.13 1015.07 1015.14 1015.20 1015.22 1015.24 1015.31 1015.46 1015.60 1015.67 1015.76 1015.78 1015.84 1015.95 1016.12 1016.30 1016.44 1016.62 1016.77 1016.81 1016.82 1016.88 1016.95
1017.60 1017.74 1017.70 1017.74 1017.81 1017.74 1017.54 1017.48 1017.47 1017.44 1017.42 1017.48 1017.32 1016.83 1016.36 1016.16 1015.98 1015.93 1015.78 1015.38 1015.23 1015.22 1015.34 1015.55 1015.46 1015.36 1015.42 1015.45 1015.45 1015.60 1015.75 1015.82 1015.84 1016.00 1016.12 1016.34 1016.48 1016.58 1016.62 1016.72 1016.80 1016.82 1016.85
1017.34 1017.59 1017.58 1017.69 1017.60 1017.63 1017.57 1017.45 1017.48 1017.62 1017.51 1017.47 1017.36 1016.95 1016.29 1016.09 1016.01 1016.09 1016.10 1015.70 1015.51 1015.64 1015.64 1015.64 1015.70 1015.72 1015.53 1015.54 1015.66 1015.45 1015.60 1015.69 1015.88 1015.95 1015.99 1016.13 1016.29 1016.40 1016.45 1016.49 1016.53 1016.60 1016.66
1016.89 1017.08 1017.28 1017.32 1017.30 1017.47 1017.53 1017.29 1017.23 1017.28 1017.25 1017.10 1017.37 1017.58 1017.15 1016.62 1016.17 1016.13 1016.04 1015.90 1015.82 1015.78 1015.43 1015.34 1015.28 1015.38 1015.55 1015.64 1015.51 1015.44 1015.41 1015.47 1015.55 1015.72 1015.86 1016.01 1016.04 1016.11 1016.18 1016.24 1016.24 1016.32 1016.41
1016.74 1016.84 1016.89 1016.86 1017.00 1017.17 1017.30 1017.12 1017.17 1016.82 1016.48 1016.38 1016.68 1017.08 1017.43 1017.37 1017.13 1016.15 1015.96 1016.24 1016.35 1015.98 1015.56 1015.29 1015.17 1015.30 1015.49 1015.65 1015.52 1015.42 1015.36 1015.42 1015.50 1015.59 1015.68 1015.80 1015.93 1015.91 1015.91 1015.96 1016.11 1016.14 1016.28
1016.71 1016.70 1016.56 1016.55 1016.70 1016.76 1016.98 1016.90 1016.82 1017.12 1017.06 1017.04 1017.56 1017.42 1017.10 1017.09 1017.28 1016.95 1016.22 1016.34 1016.49 1016.35 1016.09 1015.64 1015.33 1015.50 1015.60 1015.58 1015.50 1015.48 1015.52 1015.28 1015.10 1015.18 1015.40 1015.60 1015.54 1015.51 1015.52 1015.61 1015.75 1015.85 1015.86
1016.60 1016.42 1016.28 1016.24 1016.45 1016.41 1016.61 1016.45 1016.50 1016.74 1016.83 1016.78 1017.16 1017.23 1017.19 1017.18 1017.28 1017.32 1016.84 1016.59 1016.70 1016.80 1016.78 1016.41 1016.24 1016.15 1016.04 1015.91 1015.66 1015.50 1015.22 1015.14 1015.05 1015.05 1015.14 1015.13 1015.09 1015.08 1015.07 1015.10 1015.18 1015.27 1015.30
1016.48 1016.07 1015.92 1015.99 1015.97 1016.06 1016.00 1016.15 1016.30 1016.29 1016.15 1016.54 1016.89 1016.85 1016.68 1016.86 1016.99 1017.04 1017.03 1016.86 1016.80 1016.99 1017.19 1017.14 1016.98 1016.90 1016.74 1016.40 1015.90 1015.74 1015.55 1015.45 1015.27 1015.09 1015.06 1014.98 1014.83 1014.75 1014.70 1014.71 1014.78 1014.84 1014.82
1016.33 1015.94 1015.80 1015.81 1015.80 1015.63 1015.62 1015.59 1015.76 1016.05 1016.02 1016.07 1016.16 1016.51 1016.54 1016.49 1016.57 1016.66 1016.78 1016.85 1016.88 1017.08 1017.34 1017.54 1017.54 1017.39 1017.04 1016.84 1016.51 1016.32 1016.14 1015.83 1015.52 1015.29 1015.07 1014.98 1014.99 1014.99 1015.02 1015.00 1014.96 1014.93 1014.88
1015.94 1015.66 1015.70 1015.48 1015.31 1015.35 1015.28 1015.13 1015.48 1015.89 1015.85 1016.13 1016.02 1016.44 1016.41 1016.32 1016.35 1016.40 1016.46 1016.57 1016.85 1017.20 1017.55 1017.88 1017.81 1017.61 1017.49 1017.26 1016.96 1016.60 1016.20 1015.74 1015.37 1015.10 1015.10 1015.13 1015.14 1015.10 1015.10 1015.08 1014.96 1014.89 1014.81
1015.52 1015.38 1015.38 1015.45 1015.21 1015.12 1015.10 1015.14 1015.28 1015.64 1015.91 1016.08 1016.20 1016.34 1016.44 1016.43 1016.22 1016.10 1016.16 1016.22 1016.68 1017.15 1017.84 1018.11 1018.13 1017.89 1017.73 1017.43 1017.04 1016.71 1016.38 1015.92 1015.40 1015.47 1015.40 1015.27 1015.12 1015.01 1015.02 1015.06 1015.05 1015.03 1014.99
1015.30 1015.16 1015.01 1015.12 1015.10 1014.98 1014.88 1014.87 1014.93 1015.22 1015.70 1016.05 1016.39 1016.44 1016.39 1016.21 1016.12 1016.06 1016.30 1016.53 1016.80 1017.16 1017.98 1018.66 1018.46 1018.35 1018.06 1017.71 1017.13 1016.78 1016.41 1016.02 1015.74 1015.52 1015.40 1015.18 1015.01 1014.94 1014.97 1015.02 1014.90 1014.80 1014.68
1014.90 1014.88 1014.57 1014.71 1014.79 1014.88 1014.65 1014.66 1014.71 1015.21 1015.51 1015.99 1016.28 1016.13 1016.17 1016.08 1016.26 1016.44 1016.62 1016.94 1017.23 1017.47 1018.26 1018.79 1018.87 1018.56 1018.21 1017.68 1017.03 1016.71 1016.39 1016.03 1015.78 1015.53 1015.20 1015.03 1014.98 1014.86 1014.92 1014.83 1014.71 1014.58 1014.39
1014.41 1014.44 1014.57 1014.42 1014.31 1014.43 1014.32 1014.44 1014.65 1015.00 1015.31 1015.71 1015.98 1016.14 1016.24 1016.47 1016.82 1017.00 1017.19 1017.69 1017.90 1017.98 1018.28 1019.04 1019.11 1018.63 1018.21 1017.77 1017.41 1016.85 1016.27 1015.81 1015.70 1015.51 1015.25 1015.06 1014.97 1014.82 1014.66 1014.50 1014.34 1014.16 1013.94
1013.88 1014.20 1014.24 1014.12 1014.04 1013.96 1014.03 1014.22 1014.48 1014.88 1015.20 1015.58 1015.94 1016.12 1016.43 1016.88 1017.30 1017.57 1018.09 1018.26 1018.47 1018.66 1019.04 1019.22 1019.18 1019.04 1018.56 1017.93 1017.39 1016.97 1016.54 1015.97 1015.68 1015.65 1015.32 1015.13 1014.94 1014.76 1014.50 1014.19 1014.02 1013.76 1013.32
1013.52 1013.61 1013.72 1013.70 1013.67 1013.70 1013.89 1014.13 1014.56 1014.83 1015.27 1015.80 1016.02 1016.15 1016.66 1017.04 1017.26 1017.94 1018.54 1018.93 1019.19 1019.30 1019.39 1019.47 1019.50 1019.39 1019.10 1018.40 1018.16 1017.41 1016.33 1016.03 1015.74 1015.73 1015.43 1015.10 1014.97 1014.72 1014.36 1014.20 1013.85 1013.20 1012.64
1012.88 1013.06 1013.25 1013.28 1013.30 1013.52 1013.64 1014.12 1014.54 1015.02 1015.43 1016.03 1016.39 1016.70 1017.21 1017.47 1017.79 1018.14 1018.75 1019.44 1019.55 1019.62 1019.80 1019.91 1019.84 1019.76 1019.41 1018.81 1018.34 1018.00 1017.28 1016.55 1016.06 1016.15 1015.58 1015.21 1014.98 1014.74 1014.39 1014.14 1013.55 1012.62 1011.76
1012.46 1012.70 1012.82 1012.88 1013.12 1013.17 1013.32 1014.04 1014.53 1015.18 1015.81 1016.34 1016.95 1017.37 1017.64 1017.90 1018.28 1018.68 1019.07 1019.44 1019.48 1019.77 1020.14 1020.30 1020.43 1020.25 1020.04 1019.78 1018.98 1018.38 1017.83 1017.03 1016.34 1016.20 1015.91 1015.48 1015.20 1014.81 1014.41 1014.06 1013.33 1012.22 1010.92
1012.08 1012.26 1012.37 1012.62 1012.85 1013.29 1013.69 1014.26 1014.76 1015.48 1016.11 1016.78 1017.29 1017.56 1017.98 1018.44 1018.65 1018.91 1019.40 1019.62 1020.03 1020.23 1020.34 1020.49 1020.63 1020.76 1020.58 1020.22 1019.71 1018.64 1018.14 1017.75 1017.33 1016.92 1016.48 1015.88 1015.47 1015.06 1014.42 1013.96 1013.31 1012.12 1010.80
1011.51 1011.80 1012.06 1012.38 1013.09 1013.84 1014.08 1014.60 1015.16 1015.93 1016.56 1017.30 1017.65 1017.88 1018.36 1019.00 1019.21 1019.45 1019.72 1020.20 1020.47 1020.66 1020.68 1020.73 1020.89 1021.03 1020.87 1020.37 1019.96 1019.40 1018.72 1017.86 1017.39 1017.20 1016.81 1016.46 1015.96 1015.44 1014.74 1014.16 1013.44 1012.54 1011.63
1011.08 1011.43 1011.83 1012.55 1013.24 1014.24 1014.55 1014.94 1015.38 1016.28 1017.15 1017.79 1017.99 1018.29 1018.83 1019.22 1019.48 1019.70 1020.15 1020.60 1020.93 1021.02 1020.97 1020.98 1021.06 1021.10 1020.95 1020.51 1020.13 1019.24 1018.42 1017.51 1017.22 1017.22 1017.25 1017.01 1016.79 1016.18 1015.22 1014.62 1013.90 1013.15 1012.43
1010.56 1011.22 1011.91 1012.58 1013.33 1014.23 1014.91 1015.13 1015.62 1016.38 1017.40 1018.14 1018.60 1018.76 1019.13 1019.37 1019.87 1020.12 1020.32 1020.75 1020.94 1021.09 1021.11 1021.29 1021.27 1020.98 1021.06 1020.75 1020.35 1020.19 1019.82 1018.90 1018.18 1017.51 1017.70 1017.58 1016.95 1016.64 1015.87 1015.28 1014.82 1014.14 1013.35
Wind_Speed
2 3 2 1 3 3 3 4 5 5 5 5 4 3 5 4 3 2 2 7 9 9 7 10 9 9 10 10 11 11 11 11 9 10 10 10 9 10 10 11 12 12 13
3 3 2 2 3 3 2 3 4 4 5 4 6 5 5 4 4 3 2 4 8 7 9 10 9 9 10 10 9 9 9 9 9 9 9 9 9 8 9 10 10 11 12
4 4 3 2 3 2 3 3 3 3 4 6 5 6 5 6 4 3 3 3 3 6 8 8 9 8 8 9 6 7 5 6 6 6 6 5 3 2 1 3 6 10 11
5 3 3 3 3 1 1 2 2 1 3 3 4 5 4 4 5 4 4 2 2 3 4 6 7 6 5 4 2 0 1 3 3 2 3 2 2 3 5 6 8 9 10
5 3 3 3 4 1 2 1 1 1 2 3 4 5 4 4 3 5 5 5 5 4 3 5 6 6 5 5 4 4 5 5 5 4 4 4 2 1 3 4 6 7 8
6 4 3 4 3 2 1 1 1 1 2 2 3 6 4 3 1 2 4 4 4 5 4 4 3 2 5 7 7 8 8 8 8 7 6 5 4 3 5 7 8 8 8
5 5 4 3 3 2 1 2 1 1 2 1 2 4 2 2 2 2 3 2 3 4 5 3 3 2 4 6 11 10 11 11 9 9 9 8 7 6 6 7 8 9 9
2 4 4 4 2 2 3 3 2 1 2 1 1 1 3 4 3 2 2 3 5 5 6 6 4 6 3 3 8 11 12 12 12 11 11 9 8 7 7 9 9 9 10
4 5 6 4 4 2 3 4 2 5 4 4 5 3 2 2 3 2 2 2 5 5 6 5 3 3 3 4 7 9 12 11 13 13 13 11 10 10 9 8 10 10 10
4 5 6 5 5 3 4 5 4 3 2 3 1 1 1 3 3 3 2 2 3 7 8 6 6 6 6 4 6 8 11 11 11 12 13 11 13 10 10 11 11 11 10
3 5 6 5 5 4 4 7 4 4 1 2 1 2 1 2 2 3 4 3 1 5 6 6 6 6 8 7 5 4 9 11 10 8 7 11 13 14 14 14 13 13 13
3 5 5 4 5 5 6 4 5 3 4 2 1 2 2 2 2 3 4 2 1 2 5 7 7 6 7 7 9 13 12 12 11 10 10 10 12 14 13 10 11 12 13
3 5 5 4 3 5 5 4 4 3 4 3 4 4 2 2 2 1 1 1 1 0 1 5 5 6 6 6 8 13 12 11 10 9 6 6 6 6 5 6 8 9 11
4 5 5 4 6 4 4 2 2 3 3 1 4 1 1 1 3 3 2 2 1 0 3 4 3 7 7 6 9 14 8 13 12 9 5 7 8 8 8 9 10 11 12
5 6 6 6 7 5 4 3 3 4 3 3 3 1 1 3 1 1 2 1 2 0 2 3 3 4 6 6 8 7 6 10 8 6 7 10 9 8 5 6 8 9 10
5 6 6 5 5 5 5 4 5 3 5 3 3 2 2 1 2 2 2 3 1 2 3 1 2 3 4 6 8 6 7 9 9 9 14 13 8 3 4 6 9 9 11
6 7 8 5 6 6 7 6 6 4 6 6 4 4 1 3 3 4 4 4 3 2 4 2 1 2 3 7 8 7 6 6 7 16 16 8 7 4 5 6 7 9 11
6 8 4 6 7 7 7 5 4 4 6 7 5 2 4 4 6 5 5 6 5 4 4 4 2 3 3 6 7 8 7 5 5 17 13 7 11 9 8 5 8 10 12
7 5 6 7 7 8 6 4 2 5 4 4 3 3 6 6 5 6 6 7 6 6 5 3 3 2 3 4 8 6 8 6 5 10 12 8 12 11 11 12 11 14 11
6 6 6 7 7 6 4 2 5 5 6 5 5 6 6 5 8 8 7 7 5 6 5 4 4 3 2 4 6 8 9 6 5 6 11 7 11 11 11 15 14 18 15
6 6 5 6 6 4 3 6 7 7 7 8 7 7 6 9 14 10 7 5 6 5 4 5 4 3 5 7 10 8 7 9 2 5 8 4 5 4 5 8 13 20 20
6 5 6 7 4 3 11 11 9 7 8 9 8 8 7 12 12 13 13 9 6 5 3 2 2 4 6 7 7 9 8 7 5 7 9 3 5 6 5 6 20 24 25
5 6 6 4 2 4 13 13 13 9 9 8 8 8 8 7 10 9 10 10 9 9 5 3 4 5 5 8 8 10 10 6 3 5 8 3 7 6 5 7 22 25 29
7 5 4 4 7 5 14 14 15 9 9 7 7 7 8 7 6 7 6 6 5 5 4 5 6 4 4 7 7 6 8 7 2 3 10 3 7 4 5 7 22 27 28
5 5 5 8 10 9 13 15 13 10 9 7 6 6 7 6 8 9 7 5 4 4 6 8 8 7 8 11 12 8 11 10 6 6 12 5 5 5 4 9 11 27 24
5 6 8 8 10 12 11 13 12 9 9 6 4 5 8 7 8 8 7 4 4 3 5 4 3 5 6 7 11 9 8 10 11 6 11 7 9 5 4 3 7 11 11
Wind_Direction
312 320 266 277 330 323 355 346 333 337 332 349 326 335 321 323 314 275 287 262 220 230 228 251 256 240 242 247 249 246 247 247 241 236 237 245 244 239 239 248 252 255 257
298 299 302 351 317 306 333 305 322 324 314 327 328 339 342 332 314 299 254 267 260 233 244 254 256 247 252 253 254 254 256 264 261 259 253 250 239 239 238 233 241 247 254
289 287 303 292 309 331 321 312 334 303 342 327 331 326 336 337 332 322 286 242 255 285 266 267 265 269 273 277 270 255 252 248 239 232 223 235 244 248 298 297 277 265 255
264 286 304 305 339 14 344 333 301 329 275 296 325 317 318 316 312 319 334 296 272 272 281 281 272 271 266 275 262 3 187 170 158 139 98 75 41 15 356 340 329 320 308
241 239 261 289 306 310 46 94 43 224 299 312 329 311 303 304 337 348 342 329 302 289 282 294 290 255 262 264 243 224 214 200 184 179 176 183 169 254 292 295 294 295 299
229 226 253 274 273 294 323 227 233 235 265 318 315 304 292 311 341 2 1 321 289 279 283 296 292 317 296 285 254 229 227 216 209 203 205 203 220 273 299 297 289 280 283
221 209 236 251 244 263 295 287 6 304 299 38 345 313 308 329 344 318 348 333 314 309 295 270 263 269 265 294 309 234 231 226 224 222 217 220 244 268 285 291 285 273 271
248 227 241 246 256 295 279 259 206 230 249 211 188 194 349 332 346 358 339 331 338 324 307 300 240 226 246 275 265 271 251 242 234 233 232 233 249 261 273 291 298 290 278
263 243 252 258 257 218 251 266 255 208 219 206 176 155 173 245 324 311 331 350 345 343 332 322 289 253 279 279 270 266 267 259 252 249 248 246 252 249 245 278 283 278 274
291 264 261 248 255 243 239 248 262 314 313 301 5 270 291 151 202 310 322 359 15 0 3 10 28 23 1 330 294 268 268 269 263 254 256 259 264 274 250 257 266 264 257
288 275 262 247 252 244 229 259 235 248 234 254 242 174 195 175 222 227 285 329 27 28 22 22 30 28 21 19 9 349 19 12 3 354 314 295 287 279 272 263 262 258 252
275 283 285 262 257 265 262 244 256 240 243 210 173 232 191 196 192 213 252 290 227 78 39 35 31 24 19 14 21 19 11 5 1 356 342 319 293 282 278 277 285 288 279
256 276 282 287 268 269 265 242 262 253 258 213 171 220 203 195 197 214 220 240 268 122 50 55 33 23 15 8 5 3 355 355 350 346 7 40 39 25 352 316 299 291 286
239 252 264 276 277 269 273 275 272 242 204 262 183 215 160 262 223 191 204 197 154 124 65 349 26 20 9 359 347 357 345 347 345 339 66 29 7 350 331 316 308 303 296
245 256 251 258 273 287 285 312 258 221 195 159 148 127 290 307 282 174 194 158 151 212 43 19 345 1 7 348 336 354 343 347 342 45 28 1 337 324 359 2 331 313 298
226 247 256 250 269 283 292 293 275 199 146 149 142 252 301 303 58 60 69 82 78 134 130 313 352 323 322 337 344 351 349 3 351 13 358 341 348 49 7 337 317 310 305
210 234 249 265 263 272 282 278 278 139 164 156 188 233 360 93 74 60 70 65 54 68 97 48 325 304 302 348 355 355 354 7 14 359 340 353 351 354 8 338 324 309 296
209 231 241 253 264 263 264 265 297 125 152 171 200 167 110 102 72 65 60 63 68 64 108 83 305 319 337 356 335 342 346 352 353 9 357 1 3 337 328 320 332 320 308
219 214 223 242 259 260 272 274 76 128 133 148 150 133 127 106 91 79 76 75 73 75 71 102 18 323 311 339 346 342 338 322 337 7 359 1 359 345 345 351 332 312 308
205 216 221 242 250 258 251 207 133 128 111 106 111 113 120 123 114 108 92 94 95 85 71 61 38 357 325 334 335 340 344 339 343 12 352 346 359 341 350 350 331 318 321
215 219 231 241 253 254 199 144 138 124 113 97 86 87 90 106 108 112 121 126 104 85 68 52 35 5 349 346 355 336 322 330 329 6 344 337 353 326 320 336 325 337 330
209 211 230 242 261 249 143 134 129 117 104 107 106 95 98 99 106 113 118 116 103 103 78 57 18 10 358 339 334 339 342 347 348 26 347 320 356 331 328 337 352 349 338
191 215 231 230 183 108 130 129 119 119 118 119 122 118 111 110 110 115 103 88 72 74 83 101 65 29 360 347 328 344 352 341 323 342 353 323 358 320 335 351 1 3 8
199 205 211 157 120 122 129 124 116 113 113 111 124 126 122 121 124 115 104 83 69 68 75 83 81 73 30 354 358 326 327 307 266 352 4 326 349 311 321 353 7 13 19
178 175 153 137 132 139 137 132 123 117 112 112 120 125 124 131 144 133 106 102 79 62 101 106 90 62 30 18 19 356 9 10 16 14 14 350 340 317 313 4 7 11 13
159 138 133 134 137 139 154 139 128 128 124 127 114 119 135 149 148 138 123 129 104 99 132 119 19 7 14 359 20 29 9 16 8 5 2 351 358 358 339 346 360 7 4